Terminal Aerodrome Forecast
Issued by NWS

Home | Current Version | Previous Version | Text Only | Print | Product List | Glossary On
Versions: 1 2 3 4 5 6 7 8 9 10 11 12 13 14
397
FTUS43 KJKL 010212 AAA
TAFSJS
TAF AMD
KSJS 010212Z 0102/0124 17007KT P6SM SCT050
     FM011000 20010KT P6SM VCTS SCT035CB OVC050
     FM011300 22009KT P6SM SHRA VCTS OVC035CB
     FM011500 23009KT P6SM VCSH BKN040
     FM011800 20016G30KT P6SM SCT040=

USA.gov is the U.S. government's official web portal to all federal, state and local government web resources and services.